Douglas, WY

10:43 AM MST on January 21, 2018 (GMT -0700)
Converse County

Weather History for KDGW - May, 2014

Change the Weather History Date:

Friday, May 2, 2014

  Actual Average Record
Temperature  
Mean Temperature 54 °F 48 °F  
Max Temperature 76 °F 63 °F 81 °F (2000)
Min Temperature 32 °F 34 °F 17 °F (2005)
Degree Days  
Heating Degree Days 11 17  
Month to date heating degree days 30 17  
Since 1 July heating degree days 7149 6974  
Cooling Degree Days 0 0  
Month to date cooling degree days 0 0  
Year to date cooling degree days 0 0  
Growing Degree Days 4 (Base 50)    
Moisture  
Dew Point 33 °F    
Average Humidity 54    
Maximum Humidity 89    
Minimum Humidity 18    
Precipitation  
Precipitation 0.00 in 0.09 in 0.13 in (2008)
Month to date precipitation 0.00 0.09  
Year to date precipitation 3.55 3.24  
Sea Level Pressure  
Sea Level Pressure 29.91 in    
Wind  
Wind Speed 13 mph (NNW)    
Max Wind Speed 30 mph    
Max Gust Speed 41 mph    
Visibility 10 miles    
Events      
T = Trace of Precipitation, MM = Missing Value Source: NWS Daily Summary

Daily Weather History Graph

Daily Weather History Graph

Search for Another Location

Airport or City:

Trip Planner

Search our weather history database for the weather conditions in past years. The results will help you decide how hot, cold, wet, or windy it might be!

Date:

Astronomy

May. 02, 2014 Rise Set
Actual Time 5:54 AM MDT 8:03 PM MDT
Civil Twilight 5:23 AM MDT 8:34 PM MDT
Nautical Twilight 4:45 AM MDT 9:12 PM MDT
Astronomical Twilight 4:03 AM MDT 9:55 PM MDT
Moon 8:32 AM MDT (5/2) 11:29 PM MDT (5/2)
Length of Visible Light 15h 11m
Length of Day
14h 08m
Waxing Crescent, 13% of the Moon is Illuminated
May 2
Waxing Crescent
May 6
First Quarter
May 14
Full
May 21
Last Quarter
May 28
New

Hourly Weather History & Observations

Time (MDT) Temp. Windchill Dew Point Humidity Pressure Visibility Wind Dir Wind Speed Gust Speed Precip Events Conditions
12:53 AM 37.9 °F 32.7 °F 30.0 °F 73% 30.06 in 10.0 mi North 6.9 mph - N/A   Clear
1:53 AM 36.0 °F 31.1 °F 28.9 °F 76% 30.04 in 10.0 mi North 5.8 mph - N/A   Clear
2:53 AM 35.1 °F - 28.9 °F 78% 30.03 in 10.0 mi Calm Calm - N/A   Clear
3:53 AM 34.0 °F 29.8 °F 28.0 °F 79% 30.02 in 10.0 mi North 4.6 mph - N/A   Partly Cloudy
4:53 AM 37.0 °F 32.4 °F 28.9 °F 73% 30.00 in 10.0 mi NNW 5.8 mph - N/A   Clear
5:53 AM 35.1 °F 31.0 °F 28.0 °F 76% 30.00 in 10.0 mi NNW 4.6 mph - N/A   Clear
6:53 AM 37.9 °F 32.7 °F 30.9 °F 76% 29.99 in 10.0 mi NW 6.9 mph - N/A   Clear
7:53 AM 45.0 °F 41.2 °F 33.1 °F 63% 29.96 in 10.0 mi NW 6.9 mph - N/A   Clear
8:53 AM 54.0 °F - 34.0 °F 47% 29.94 in 10.0 mi NW 11.5 mph - N/A   Clear
9:53 AM 64.0 °F - 33.1 °F 31% 29.90 in 10.0 mi WNW 18.4 mph 25.3 mph N/A   Clear
10:53 AM 66.9 °F - 32.0 °F 27% 29.89 in 10.0 mi West 20.7 mph - N/A   Clear
12:53 PM 72.0 °F - 33.1 °F 24% 29.85 in 10.0 mi West 21.9 mph 31.1 mph N/A   Clear
1:53 PM 73.9 °F - 32.0 °F 21% 29.83 in 10.0 mi West 20.7 mph 28.8 mph N/A   Scattered Clouds
2:53 PM 73.9 °F - 30.9 °F 21% 29.82 in 10.0 mi WNW 19.6 mph 28.8 mph N/A   Mostly Cloudy
3:53 PM 73.9 °F - 30.0 °F 20% 29.81 in 10.0 mi WNW 21.9 mph - N/A   Mostly Cloudy
4:53 PM 75.0 °F - 28.9 °F 18% 29.79 in 10.0 mi NW 17.3 mph 32.2 mph N/A   Mostly Cloudy
5:53 PM 72.0 °F - 28.9 °F 20% 29.81 in 10.0 mi NW 17.3 mph 25.3 mph N/A   Clear
6:53 PM 68.0 °F - 28.0 °F 22% 29.81 in 10.0 mi NNW 12.7 mph - N/A   Clear
7:21 PM 66.0 °F - 39.0 °F 37% 29.90 in 10.0 mi NE 13.8 mph - N/A   Clear
7:53 PM 61.0 °F - 39.9 °F 46% 29.83 in 10.0 mi NE 11.5 mph - N/A   Clear
8:53 PM 55.9 °F - 39.9 °F 55% 29.84 in 10.0 mi ENE 13.8 mph - N/A   Clear
9:53 PM 50.0 °F - 41.0 °F 71% 29.88 in 10.0 mi SSE 11.5 mph - N/A   Clear
10:53 PM 45.0 °F 40.6 °F 41.0 °F 86% 29.89 in 10.0 mi East 8.1 mph - N/A   Clear
11:53 PM 45.0 °F 41.2 °F 41.0 °F 86% 29.88 in 10.0 mi East 6.9 mph - N/A   Scattered Clouds